Location: Piotrkow Trybunalski
(51.4000°N, 19.6830°E)
Time: 17:29:57
(UTC+01:00)

ISS - Pass Details

Date: 27 January 2020
Orbit: 415 x 422 km, 51.6° (Epoch: 26 February)

Event Time Altitude Azimuth Distance (km) Brightness Sun altitude
Rises 19:12:42 0° 272° (W) 2,379 1.4 -26.5°
Reaches altitude 10° 19:14:49 10° 273° (W) 1,513 0.1 -26.9°
Enters shadow 19:16:21 25° 275° (W) 906 -1.4 -27.1°
